TIANTONG-1 3

Last updated on Tue Sep 22 2026 00:03:15 GMT+0000 (Coordinated Universal Time)

1 47321U 21003A 26264.68862965 -.00000158 00000+0 00000+0 0 9996 2 47321 1.7004 345.4432 0003243 205.3498 139.2191 1.00273525 20923
UTC large
Height (km)
Speed (km/s)
/
Latitude / Longitude
Inclination (degrees)
Orbital Period (minutes)
Azimuth
Elevation
Range (km)
Doppler Factor

Next 0 passes for location: London (51.5072 / 0.1276)

No passes found over London.
TIANTONG-1 3